Regional Weather Roundup
Issued by NWS Charleston, SC

Current Version | Previous Version | Graphics & Text | Print | Product List | Glossary On
Versions: 1 2 3 4 5 6 7 8 9 10 11 12 13 14 15 16 17 18 19 20 21 22 23 24 25 26 27 28 29 30 31 32 33 34 35 36 37 38 39 40 41 42 43 44 45 46 47 48 49 50
000 ASUS42 KCHS 021612 RWRCHS REGIONAL WEATHER ROUNDUP NATIONAL WEATHER SERVICE CHARLESTON SC 1200 PM EDT SUN AUG 02 2015 NOTE: "FAIR" INDICATES FEW OR NO CLOUDS BELOW 12,000 FEET WITH NO SIGNIFICANT WEATHER AND/OR OBSTRUCTIONS TO VISIBILITY. NOT ALL STATIONS ARE QUALITY CONTROLLED BY THE NATIONAL WEATHER SERVICE. USE DATA WITH CAUTION...ESPECIALLY DEWPOINT OBSERVATIONS. SCZ027-030-031-034>040-042>050-021700- ...SOUTHEAST SOUTH CAROLINA... CITY SKY/WX TMP DP RH WIND PRES REMARKS N CHARLESTON PTSUNNY 88 72 58 SE13 29.94S HX 94 WATERFRONT PRK N/A 82 77 84 E7 29.92S HX 90 MOUNT PLEASANT FAIR 84 75 74 E6 29.95S HX 92 JOHNS ISLAND FAIR 86 77 74 S8 29.95R HX 97 PINOPOLIS NOT AVBL MONCKS CORNER NOT AVBL SUMMERVILLE PTSUNNY 88 75 66 N6 29.95S HX 97 BEAUFORT MCAS CLOUDY 78 75 90 SE5 29.95R VSB 3/4 BEAUFORT ARPT CLOUDY 81 77 89 NE8 29.94R HILTON HEAD IS PTSUNNY 82 75 78 CALM 29.95S WALTERBORO MOSUNNY 88 73 62 E3 29.95S HX 96 ALLENDALE PTSUNNY 86 75 70 CALM 29.94S HX 95 ...SOUTHERN MIDLANDS AND PEE DEE... CITY SKY/WX TMP DP RH WIND PRES REMARKS GEORGETOWN NOT AVBL KINGSTREE NOT AVBL ORANGEBURG MOSUNNY 88 71 57 NE8 29.95S HX 94 BARNWELL FAIR 88 73 62 SE6 29.96S HX 96 AIKEN FAIR 88 66 48 E8 29.99S HX 90 MANNING RAIN 88 68 51 SE6 29.94F HX 91 COLUMBIA MOSUNNY 91 70 49 VRB5 29.94S HX 96 SUMTER SUNNY 91 68 47 NE9 29.93S HX 95 FLORENCE SUNNY 89 65 44 E9 29.95S HX 91 MYRTLE BEACH MOSUNNY 88 73 62 S10 29.97S HX 96 N MYRTLE BEACH SUNNY 86 74 67 S7 29.96R HX 94 $$ GAZ063-065-086>088-099>101-113>116-118-119-134>141-150-021700- ...SOUTHEAST GEORGIA... CITY SKY/WX TMP DP RH WIND PRES REMARKS SAVANNAH ARPT LGT RAIN 75 73 94 NE7 29.95R HUNTER AAF MOSUNNY 79 79 100 N3 29.92R FORT STEWART PTSUNNY 90 73 58 SE6 29.84S HX 98 STATESBORO PTSUNNY 82 81 96 NE3 29.95R HX 96 SYLVANIA PTSUNNY 83 78 83 E6 29.96R HX 93 CLAXTON NOT AVBL ...CSRA...CENTRAL AND FAR SOUTHEAST GEORGIA... CITY SKY/WX TMP DP RH WIND PRES REMARKS THOMSON SUNNY 89 74 62 E9 29.99S HX 98 AUGUSTA-BUSH MOSUNNY 87 75 67 S8 29.94S HX 96 AUGUSTA-DANIEL MOSUNNY 87 72 60 SE7 29.96S HX 93 SWAINSBORO CLOUDY 84 77 79 SE7 29.96R HX 94 VIDALIA CLOUDY 81 73 78 SE6 29.94S EASTMAN CLOUDY 83 77 81 E7 29.96S HX 93 HAZLEHURST CLOUDY 83 76 80 E8 29.92S HX 90 ALMA CLOUDY 81 73 76 VRB5 29.92S WAYCROSS CLOUDY 83 78 83 E6 29.92S HX 93 JESUP FAIR 86 75 70 CALM 29.92F HX 95 BAXLEY CLOUDY 82 73 74 CALM 29.93R BRUNSWICK PTSUNNY 82 75 78 N3 29.92F SAINT SIMONS CLOUDY 82 73 74 S7 29.92R $$ SCZ027-028-034-036>038-045-046-048>050-GAZ119-141-021700- ...LAKE AND SUPPLEMENTAL COASTAL OBSERVATIONS... STATION/POSITION TIME TEMP WIND PRES WAVE SWELL AIR SEA DIR/SP/G HT/PER HT/PER/DIR (UTC) (F) (DEG/KT/KT) (MB) (FT/S) (FT/S/D) UPR LAKE MARION NOT AVBL WINYAH BAY NOT AVBL LAKE MURRAY 1500 86 140/ 3/ 4 1013.5S ACE BASIN NERRS NOT AVBL FORT PULASKI 1500 77 86 330/ 4/ 5 1014.3R SAPELO ISLAND 1500 80 240/ 4 1013.0S $$ ANZ835-935-AMZ111-154-330-350-352-354-370-450-454-472-021700- ...C-MAN AND BUOY OBSERVATIONS... STATION/POSITION TIME TEMP WIND PRES WAVE SWELL AIR SEA DIR/SP/G HT/PER HT/PER/DIR (UTC) (F) (DEG/KT/KT) (MB) (FT/S) (FT/S/D) BUOY 41004 1550 76 83 350/ 2/ 4 1014.5R 4/ 7 3/ 7 BUOY 41008 1550 80 83 180/ 12/ 14 1013.5R 3/ 6 2/150/ 6 FOLLY BEACH CMAN 1500 82 160/ 6/ 6 1014.1R CAPERS NEARSHORE 1508 82 70/ 6/ 10 1014.2R FRIPP NEARSHORE 1500 83 210/ 10/ 12 1013.6R STATION/POSITION TIME TEMP WIND PRES WAVE SWELL AIR SEA DIR/SP/G HT/PER HT/PER/DIR (UTC) (F) (DEG/KT/KT) (MB) (FT/S) (FT/S/D) 5E ST. MARYS GA 1521 83 N/A 3/ 5 2/110/13 FRYING PAN BUOY 1550 83 85 CALM / 2 1015.4R 5/ 8 5/170/ 8 BUOY 41025 1550 83 87 160/ 4/ 6 1014.5R 3/ 7 3/180/ 7 CAPE LOOKOUT NC 1500 82 140/ 6/ 6 1014.0R BUOY 41002 1550 83 81 220/ 14/ 17 1016.5S 7/ 8 5/270/ 8 BUOY 41010 1520 83 84 170/ 12/ 14 1016.2R ST AUGUSTINE FL 1600 85 80 200/ 17/ 20 1013.8F $$

USA.gov is the U.S. government's official web portal to all federal, state and local government web resources and services.